Hourly Data Report for September 05, 2017

All times are specified in Local Standard Time (LST). Add 1 hour to adjust for Daylight Saving Time where and when it is observed.

PORT ALBERNI (AUT)
BRITISH COLUMBIA

49°18'59.700" N
124°55'36.600" W
76.20 m
1036B06
71475
WQC

Download Data

Hourly Data (September 2017)
Hourly Data Report for September 5, 2017
Temp Definition
°C
Dew Point Temp Definition
°C
Rel Hum Definition
%
Wind Dir Definition
10's deg

Wind Spd Definition
km/h
Visibility Definition
km
Stn Press Definition
kPa
Hmdx Definition


Wind Chill Definition


Weather Definition


TIME
00:00 17.6 13.2 75 26 4   100.41     LegendNANA
01:00 17.9 13.8 77 29 3   100.39     LegendNANA
02:00 18.3 14.4 78 31 4   100.39     LegendNANA
03:00 17.5 13.9 80 31 3   100.38     LegendNANA
04:00 17.2 13.8 80 4 14   100.40     LegendNANA
05:00 16.9 13.4 80 25 4   100.40     LegendNANA
06:00 16.0 13.4 85 31 11   100.40     LegendNANA
07:00 18.0 14.1 78 36 3   100.43     LegendNANA
08:00 20.5 14.5 68 24 3   100.41     LegendNANA
09:00 21.1 14.6 66 24 3   100.47 25   LegendNANA
10:00 23.4 14.8 58 6 3   100.48 27   LegendNANA
11:00 26.4 13.7 46 6 2   100.47 30   LegendNANA
12:00 28.2 11.2 35 3 2   100.44 30   LegendNANA
13:00 28.6 13.7 40 3 2   100.45 32   LegendNANA
14:00 29.1 11.9 35 2 3   100.39 31   LegendNANA
15:00 31.4 12.0 30 32 3   100.28 34   LegendNANA
16:00 31.9 12.8 31 14 4   100.31 35   LegendNANA
17:00 31.4 12.9 32 14 7   100.27 34   LegendNANA
18:00 27.4 14.4 45 36 2   100.27 31   LegendNANA
19:00 25.5 14.9 52 13 7   100.31 29   LegendNANA
20:00 24.3 14.6 55 11 7   100.39 28   LegendNANA
21:00 21.6 15.3 67 27 4   100.43 26   LegendNANA
22:00 20.7 15.2 71 16 5   100.45 25   LegendNANA
23:00 18.9 15.0 78 31 3   100.45     LegendNANA

Notes on Data Quality.

Legend

  • E = Estimated
  • M = Missing
  • NA = Not Available
  • ‡ = Partner data that is not subject to review by the National Climate Archives
Date modified: